Location: Hains Lake
(37.8540°N, 99.8578°W)
Time: 11:16:09
(UTC+00:00)

Tiros 1 despin weight - Pass Details

Date: 21 April 2021
Orbit: 593 x 642 km, 48.2° (Epoch: 07 May)

Event Time Altitude Azimuth Distance (km) Brightness Sun altitude
Rises 10:24:57 0° 220° (SW) 2,918 - -17.2°
Reaches altitude 10° 10:27:20 10° 215° (SW) 2,007 - -16.8°
Exits shadow 10:29:19 24° 205° (SSW) 1,298 ? -16.5°
Maximum altitude 10:31:48 50° 140° (SE) 795 ? -16.1°
Drops below altitude 10° 10:36:14 10° 65° (ENE) 1,988 ? -15.3°
Sets 10:38:34 0° 60° (ENE) 2,888 ? -14.9°
